HP1CDW-13 Weather Reports


time (UTC)temp
F
wind
direction
speed
knots
gust
knots
rain 1hr
in
rain 24hr
in
rain mn
in
humidity
%
barometer
mb
20260504130450 83 21 0.9 1.7 0.00 0.03 0.00 81 1015.2
20260504110450 77 0 0.0 0.0 0.00 0.03 0.00 94 1013.9
20260504100450 78 0 0.0 0.9 0.00 0.03 0.00 92 1013.8
20260504081450 78 305 2.6 3.5 0.00 0.04 0.00 92 1013.4
20260504080450 78 294 2.6 2.6 0.00 0.04 0.00 92 1013.3
20260504050450 78 357 0.9 4.3 0.00 0.05 0.00 93 1014.9
20260504045450 78 321 1.7 3.5 0.00 0.05 0.05 92 1015.3
20260504044450 78 287 2.6 3.5 0.00 0.05 0.05 92 1015.4
20260504043450 78 308 2.6 2.6 0.00 0.05 0.05 92 1015.2
20260504042450 78 282 5.2 5.2 0.00 0.05 0.05 92 1015.4
20260504041450 78 248 2.6 2.6 0.00 0.05 0.05 93 1015.3
20260504040450 78 341 0.9 3.5 0.00 0.05 0.05 93 1015.1
20260504035450 78 316 1.7 1.7 0.00 0.05 0.05 93 1015.3
20260504034450 78 239 1.7 1.7 0.00 0.05 0.05 93 1015.2
20260504033450 78 283 1.7 2.6 0.00 0.05 0.05 92 1015.5
20260504032450 79 272 0.9 1.7 0.00 0.06 0.05 92 1015.5
20260504031450 79 292 1.7 2.6 0.00 0.06 0.05 91 1015.3
20260504030450 79 288 0.9 1.7 0.00 0.06 0.05 91 1015.3
20260504025450 79 265 1.7 2.6 0.00 0.06 0.05 91 1015.3
20260504024450 79 317 0.9 0.9 0.00 0.06 0.05 91 1015.4
20260504023450 79 312 0.9 0.9 0.00 0.06 0.05 91 1015.5
20260504022450 79 0 0.0 0.0 0.00 0.06 0.05 90 1014.9
20260504021450 79 228 0.9 0.9 0.00 0.06 0.05 89 1015.0
20260504020450 80 0 0.0 0.9 0.00 0.06 0.05 89 1014.8
20260504015450 80 308 2.6 4.3 0.00 0.06 0.05 89 1014.8
20260504014450 80 325 3.5 3.5 0.00 0.06 0.05 89 1014.6
20260504013450 80 322 0.9 1.7 0.00 0.06 0.05 90 1014.5
20260504012450 80 344 0.9 0.9 0.00 0.06 0.05 91 1014.5
20260504011450 80 273 0.9 0.9 0.00 0.06 0.05 91 1014.4
20260504010450 80 231 0.9 1.7 0.00 0.06 0.05 91 1014.5
20260504005450 80 216 1.7 2.6 0.00 0.06 0.05 91 1014.5
20260504004450 80 285 0.9 1.7 0.00 0.06 0.05 91 1014.8
20260504003450 80 278 0.9 0.9 0.00 0.07 0.05 91 1014.7
20260504002450 80 0 0.0 0.9 0.00 0.07 0.05 92 1014.3
20260504001450 80 0 0.0 0.0 0.00 0.07 0.05 91 1014.4
20260504000450 80 250 0.9 0.9 0.00 0.07 0.05 91 1014.5
20260503235450 80 239 1.7 1.7 0.00 0.08 0.05 90 1014.1
20260503234450 80 242 0.9 0.9 0.00 0.08 0.05 90 1014.0
20260503233450 80 0 0.0 0.0 0.00 0.09 0.05 89 1014.2
20260503232450 80 340 0.9 0.9 0.00 0.10 0.05 89 1013.9
20260503231450 81 359 2.6 3.5 0.00 0.11 0.05 88 1013.8
20260503230450 81 301 0.9 1.7 0.00 0.11 0.05 87 1013.6
20260503225450 81 286 1.7 1.7 0.00 0.12 0.05 87 1013.2
20260503224450 82 306 1.7 1.7 0.00 0.15 0.05 86 1013.2
20260503223450 82 315 2.6 2.6 0.00 0.17 0.05 86 1013.3
20260503222450 82 304 0.9 1.7 0.00 0.20 0.05 86 1013.3
20260503221450 82 318 1.7 2.6 0.00 0.24 0.05 86 1013.2
20260503220450 82 344 1.7 1.7 0.00 0.28 0.05 85 1013.6
20260503215450 81 42 1.7 1.7 0.00 0.29 0.05 86 1013.3
20260503214450 81 320 1.7 1.7 0.00 0.31 0.05 85 1013.3
20260503213450 81 283 1.7 1.7 0.00 0.32 0.05 86 1013.1
20260503212450 81 275 2.6 2.6 0.00 0.38 0.05 86 1013.4
20260503211450 81 268 3.5 4.3 0.00 0.42 0.05 87 1013.5
20260503210450 80 285 2.6 3.5 0.00 0.48 0.05 87 1013.5
20260503205450 80 271 2.6 2.6 0.00 0.50 0.05 88 1013.6
20260503204450 80 343 2.6 3.5 0.00 0.51 0.05 88 1013.7
20260503203450 80 332 2.6 3.5 0.00 0.53 0.05 88 1014.0
20260503202450 80 311 2.6 3.5 0.00 0.57 0.05 88 1013.8
20260503201450 80 293 2.6 2.6 0.00 0.69 0.05 88 1014.0
20260503200450 80 338 0.9 2.6 0.00 0.83 0.05 88 1014.1
20260503195450 80 321 6.1 7.0 0.00 0.86 0.05 88 1013.9
20260503194450 80 342 4.3 7.0 0.00 0.86 0.05 87 1013.8
20260503193450 80 300 3.5 4.3 0.00 0.86 0.05 87 1014.2
20260503192450 80 327 3.5 5.2 0.01 0.86 0.05 87 1014.0
20260503191450 81 335 3.5 3.5 0.03 0.86 0.05 84 1013.9
20260503190450 81 332 1.7 4.3 0.03 0.85 0.05 85 1014.3
20260503185450 80 345 1.7 2.6 0.03 0.85 0.05 86 1014.7
20260503184450 80 12 3.5 6.1 0.03 0.85 0.04 86 1015.0
20260503183450 80 20 2.6 2.6 0.03 0.85 0.04 89 1015.0
20260503182450 80 349 1.7 2.6 0.02 0.85 0.04 88 1015.6
20260503181450 82 360 3.5 6.1 0.00 0.82 0.01 83 1015.5
20260503180450 86 55 7.0 8.7 0.00 0.82 0.01 78 1015.5
20260503175450 87 94 5.2 5.2 0.00 0.82 0.01 77 1015.5
20260503174450 88 126 5.2 6.1 0.00 0.82 0.01 75 1015.6
20260503173450 87 162 3.5 5.2 0.00 0.82 0.01 75 1015.2
20260503172450 87 230 5.2 7.8 0.00 0.82 0.01 75 1015.4
20260503171450 87 214 3.5 3.5 0.00 0.82 0.01 75 1015.4
20260503170450 87 206 7.8 8.7 0.00 0.82 0.01 75 1015.6
20260503150450 86 111 4.3 4.3 0.00 0.82 0.01 78 1016.5